contact:dominique.lefevre@mio.osupytheas.fr, maurice.libes@osupytheas.fr, didier.mallarino@osupytheas.fr
Project:EMSO http://www.emso-fr.org/EMSO-France
Depth: 2436.0 m
Title:EMSO Ligure Ouest : Data MII capteur OXYGEN
DateTime,Latitude,Longitude,Optode-Type,Optode_Serial,Oxygen,Saturation_Oxygen,Temperature
DateTime,Latitude,Longitude,Optode-Type,Optode_Serial,µmol.l-1,%,degC
2019-06-29T00:00:48,42.805,6.029,4330,1995,193.523,59.183,13.289
2019-06-29T00:03:48,42.805,6.029,4330,1995,193.538,59.188,13.289
2019-06-29T00:06:48,42.805,6.029,4330,1995,193.541,59.189,13.289
2019-06-29T00:09:48,42.805,6.029,4330,1995,193.458,59.163,13.288
2019-06-29T00:12:48,42.805,6.029,4330,1995,193.493,59.174,13.288
2019-06-29T00:15:48,42.805,6.029,4330,1995,193.589,59.203,13.289
2019-06-29T00:18:48,42.805,6.029,4330,1995,193.560,59.194,13.289
2019-06-29T00:21:48,42.805,6.029,4330,1995,193.629,59.215,13.289
2019-06-29T00:24:48,42.805,6.029,4330,1995,193.653,59.223,13.289
2019-06-29T00:27:48,42.805,6.029,4330,1995,193.661,59.225,13.289
2019-06-29T00:30:48,42.805,6.029,4330,1995,193.650,59.222,13.289
2019-06-29T00:33:48,42.805,6.029,4330,1995,193.572,59.199,13.289
2019-06-29T00:36:48,42.805,6.029,4330,1995,193.605,59.209,13.289
2019-06-29T00:39:48,42.805,6.029,4330,1995,193.616,59.212,13.289
2019-06-29T00:42:48,42.805,6.029,4330,1995,193.665,59.227,13.290
2019-06-29T00:45:48,42.805,6.029,4330,1995,193.618,59.213,13.290
2019-06-29T00:48:48,42.805,6.029,4330,1995,193.647,59.222,13.290
2019-06-29T00:51:48,42.805,6.029,4330,1995,193.585,59.203,13.290
2019-06-29T00:54:48,42.805,6.029,4330,1995,193.556,59.194,13.290
2019-06-29T01:00:48,42.805,6.029,4330,1995,193.583,59.200,13.288
2019-06-29T01:03:48,42.805,6.029,4330,1995,193.514,59.179,13.288
2019-06-29T01:06:48,42.805,6.029,4330,1995,193.515,59.181,13.289
2019-06-29T01:09:48,42.805,6.029,4330,1995,193.484,59.173,13.290
2019-06-29T01:12:48,42.805,6.029,4330,1995,193.463,59.165,13.289
2019-06-29T01:15:48,42.805,6.029,4330,1995,193.550,59.192,13.289
2019-06-29T01:18:48,42.805,6.029,4330,1995,193.501,59.177,13.289
2019-06-29T01:21:48,42.805,6.029,4330,1995,193.454,59.162,13.289
2019-06-29T01:24:48,42.805,6.029,4330,1995,193.479,59.170,13.289
2019-06-29T01:27:48,42.805,6.029,4330,1995,193.459,59.164,13.289
2019-06-29T01:30:48,42.805,6.029,4330,1995,193.458,59.164,13.289
2019-06-29T01:33:48,42.805,6.029,4330,1995,193.428,59.155,13.289
2019-06-29T01:36:48,42.805,6.029,4330,1995,193.383,59.141,13.289
2019-06-29T01:39:48,42.805,6.029,4330,1995,193.467,59.167,13.289
2019-06-29T01:42:48,42.805,6.029,4330,1995,193.479,59.171,13.290
2019-06-29T01:45:48,42.805,6.029,4330,1995,193.434,59.157,13.290
2019-06-29T01:48:48,42.805,6.029,4330,1995,193.427,59.155,13.290
2019-06-29T01:51:48,42.805,6.029,4330,1995,193.298,59.116,13.290
2019-06-29T01:54:48,42.805,6.029,4330,1995,193.403,59.148,13.290
2019-06-29T01:57:48,42.805,6.029,4330,1995,193.280,59.111,13.290
2019-06-29T02:00:48,42.805,6.029,4330,1995,193.175,59.079,13.291
2019-06-29T02:03:48,42.805,6.029,4330,1995,193.324,59.124,13.290
2019-06-29T02:06:48,42.805,6.029,4330,1995,193.251,59.102,13.290
2019-06-29T02:09:48,42.805,6.029,4330,1995,193.292,59.115,13.291
2019-06-29T02:12:48,42.805,6.029,4330,1995,193.333,59.128,13.291
2019-06-29T02:15:48,42.805,6.029,4330,1995,193.310,59.121,13.291
2019-06-29T02:18:48,42.805,6.029,4330,1995,193.289,59.114,13.291
2019-06-29T02:21:48,42.805,6.029,4330,1995,193.336,59.128,13.291
2019-06-29T02:24:48,42.805,6.029,4330,1995,193.293,59.115,13.291
2019-06-29T02:27:48,42.805,6.029,4330,1995,193.333,59.128,13.291
2019-06-29T02:30:48,42.805,6.029,4330,1995,193.308,59.121,13.291
2019-06-29T02:33:48,42.805,6.029,4330,1995,193.431,59.158,13.291
2019-06-29T02:36:47,42.805,6.029,4330,1995,193.287,59.115,13.292
2019-06-29T02:39:47,42.805,6.029,4330,1995,193.309,59.121,13.292
2019-06-29T02:42:47,42.805,6.029,4330,1995,193.301,59.118,13.291
2019-06-29T02:45:47,42.805,6.029,4330,1995,193.396,59.147,13.291
2019-06-29T02:48:47,42.805,6.029,4330,1995,193.380,59.142,13.291
2019-06-29T02:51:47,42.805,6.029,4330,1995,193.348,59.132,13.291
2019-06-29T02:54:47,42.805,6.029,4330,1995,193.366,59.137,13.291
2019-06-29T02:57:47,42.805,6.029,4330,1995,193.396,59.146,13.290
2019-06-29T03:00:47,42.805,6.029,4330,1995,193.376,59.139,13.290
2019-06-29T03:03:47,42.805,6.029,4330,1995,193.328,59.125,13.290
2019-06-29T03:06:47,42.805,6.029,4330,1995,193.271,59.107,13.290
2019-06-29T03:09:47,42.805,6.029,4330,1995,193.359,59.134,13.290
2019-06-29T03:12:47,42.805,6.029,4330,1995,193.221,59.092,13.289
2019-06-29T03:15:47,42.805,6.029,4330,1995,193.231,59.095,13.289
2019-06-29T03:18:47,42.805,6.029,4330,1995,193.332,59.125,13.289
2019-06-29T03:21:47,42.805,6.029,4330,1995,193.418,59.151,13.289
2019-06-29T03:24:47,42.805,6.029,4330,1995,193.439,59.158,13.289
2019-06-29T03:27:47,42.805,6.029,4330,1995,193.398,59.145,13.289
2019-06-29T03:30:47,42.805,6.029,4330,1995,193.365,59.135,13.289
2019-06-29T03:36:47,42.805,6.029,4330,1995,193.388,59.144,13.290
2019-06-29T03:39:47,42.805,6.029,4330,1995,193.245,59.100,13.290
2019-06-29T03:42:47,42.805,6.029,4330,1995,193.126,59.063,13.290
2019-06-29T03:45:47,42.805,6.029,4330,1995,193.057,59.043,13.291
2019-06-29T03:48:47,42.805,6.029,4330,1995,193.082,59.050,13.290
2019-06-29T03:51:47,42.805,6.029,4330,1995,193.094,59.054,13.290
2019-06-29T03:54:47,42.805,6.029,4330,1995,193.090,59.053,13.290
2019-06-29T03:57:47,42.805,6.029,4330,1995,192.951,59.010,13.290
2019-06-29T04:00:47,42.805,6.029,4330,1995,193.026,59.033,13.290
2019-06-29T04:03:47,42.805,6.029,4330,1995,193.131,59.065,13.290
2019-06-29T04:06:47,42.805,6.029,4330,1995,193.112,59.059,13.290
2019-06-29T04:09:47,42.805,6.029,4330,1995,193.131,59.065,13.290
2019-06-29T04:12:47,42.805,6.029,4330,1995,192.976,59.018,13.290
2019-06-29T04:15:47,42.805,6.029,4330,1995,192.896,58.993,13.290
2019-06-29T04:18:47,42.805,6.029,4330,1995,192.857,58.980,13.289
2019-06-29T04:21:47,42.805,6.029,4330,1995,192.832,58.972,13.289
2019-06-29T04:24:47,42.805,6.029,4330,1995,192.877,58.986,13.289
2019-06-29T04:27:47,42.805,6.029,4330,1995,192.916,58.998,13.289
2019-06-29T04:30:47,42.805,6.029,4330,1995,192.939,59.004,13.289
2019-06-29T04:33:47,42.805,6.029,4330,1995,192.960,59.011,13.289
2019-06-29T04:36:47,42.805,6.029,4330,1995,192.914,58.997,13.289
2019-06-29T04:39:47,42.805,6.029,4330,1995,192.918,58.998,13.289
2019-06-29T04:42:47,42.805,6.029,4330,1995,192.919,58.998,13.289
2019-06-29T04:45:47,42.805,6.029,4330,1995,192.951,59.009,13.289
2019-06-29T04:48:47,42.805,6.029,4330,1995,192.887,58.989,13.289
2019-06-29T04:51:47,42.805,6.029,4330,1995,192.942,59.006,13.289
2019-06-29T04:54:47,42.805,6.029,4330,1995,192.985,59.019,13.289
2019-06-29T04:57:47,42.805,6.029,4330,1995,192.916,58.998,13.289
2019-06-29T05:00:47,42.805,6.029,4330,1995,192.937,59.005,13.289
2019-06-29T05:03:47,42.805,6.029,4330,1995,193.079,59.048,13.289
2019-06-29T05:06:47,42.805,6.029,4330,1995,193.081,59.048,13.289
2019-06-29T05:09:47,42.805,6.029,4330,1995,193.068,59.045,13.289
2019-06-29T05:12:47,42.805,6.029,4330,1995,193.019,59.030,13.289
2019-06-29T05:15:47,42.805,6.029,4330,1995,193.036,59.035,13.289
2019-06-29T05:18:47,42.805,6.029,4330,1995,192.977,59.017,13.290
2019-06-29T05:21:47,42.805,6.029,4330,1995,193.097,59.054,13.290
2019-06-29T05:24:47,42.805,6.029,4330,1995,193.086,59.051,13.290
2019-06-29T05:27:47,42.805,6.029,4330,1995,193.175,59.078,13.290
2019-06-29T05:30:47,42.805,6.029,4330,1995,193.184,59.081,13.290
2019-06-29T05:33:47,42.805,6.029,4330,1995,193.106,59.057,13.290
2019-06-29T05:36:47,42.805,6.029,4330,1995,193.061,59.043,13.290
2019-06-29T05:39:47,42.805,6.029,4330,1995,193.024,59.032,13.290
2019-06-29T05:42:47,42.805,6.029,4330,1995,193.073,59.047,13.290
2019-06-29T05:45:47,42.805,6.029,4330,1995,193.075,59.048,13.290
2019-06-29T05:48:47,42.805,6.029,4330,1995,193.121,59.061,13.290
2019-06-29T05:51:47,42.805,6.029,4330,1995,193.108,59.058,13.290
2019-06-29T05:54:47,42.805,6.029,4330,1995,193.133,59.065,13.290
2019-06-29T05:57:47,42.805,6.029,4330,1995,193.107,59.058,13.290
2019-06-29T06:00:47,42.805,6.029,4330,1995,193.137,59.067,13.290
2019-06-29T06:03:47,42.805,6.029,4330,1995,193.188,59.082,13.290
2019-06-29T06:12:47,42.805,6.029,4330,1995,193.201,59.083,13.287
2019-06-29T06:15:47,42.805,6.029,4330,1995,193.197,59.084,13.289
2019-06-29T06:18:47,42.805,6.029,4330,1995,193.246,59.099,13.289
2019-06-29T06:21:47,42.805,6.029,4330,1995,193.172,59.076,13.289
2019-06-29T06:24:47,42.805,6.029,4330,1995,193.185,59.080,13.289
2019-06-29T06:27:47,42.805,6.029,4330,1995,193.208,59.088,13.290
2019-06-29T06:30:47,42.805,6.029,4330,1995,193.211,59.089,13.289
2019-06-29T06:33:47,42.805,6.029,4330,1995,193.267,59.106,13.289
2019-06-29T06:36:47,42.805,6.029,4330,1995,193.277,59.109,13.289
2019-06-29T06:39:47,42.805,6.029,4330,1995,193.237,59.096,13.289
2019-06-29T06:42:47,42.805,6.029,4330,1995,193.289,59.113,13.289
2019-06-29T06:45:47,42.805,6.029,4330,1995,193.263,59.105,13.290
2019-06-29T06:48:47,42.805,6.029,4330,1995,193.198,59.085,13.289
2019-06-29T06:51:47,42.805,6.029,4330,1995,193.223,59.092,13.290
2019-06-29T06:54:47,42.805,6.029,4330,1995,193.194,59.084,13.290
2019-06-29T06:57:47,42.805,6.029,4330,1995,193.245,59.099,13.290
2019-06-29T07:00:47,42.805,6.029,4330,1995,193.220,59.091,13.290
2019-06-29T07:03:47,42.805,6.029,4330,1995,193.245,59.099,13.290
2019-06-29T07:06:47,42.805,6.029,4330,1995,193.216,59.091,13.290
2019-06-29T07:09:47,42.805,6.029,4330,1995,193.185,59.081,13.290
2019-06-29T07:12:47,42.805,6.029,4330,1995,193.149,59.070,13.290
2019-06-29T07:15:47,42.805,6.029,4330,1995,193.138,59.066,13.290
2019-06-29T07:18:47,42.805,6.029,4330,1995,193.226,59.093,13.289
2019-06-29T07:21:47,42.805,6.029,4330,1995,193.307,59.118,13.289
2019-06-29T07:24:47,42.805,6.029,4330,1995,193.330,59.125,13.289
2019-06-29T07:27:47,42.805,6.029,4330,1995,193.310,59.118,13.289
2019-06-29T07:30:47,42.805,6.029,4330,1995,193.299,59.115,13.289
2019-06-29T07:33:47,42.805,6.029,4330,1995,193.340,59.127,13.289
2019-06-29T07:36:47,42.805,6.029,4330,1995,193.352,59.131,13.289
2019-06-29T07:39:47,42.805,6.029,4330,1995,193.263,59.103,13.289
2019-06-29T07:42:47,42.805,6.029,4330,1995,193.333,59.125,13.289
2019-06-29T07:45:47,42.805,6.029,4330,1995,193.326,59.122,13.288
2019-06-29T07:48:47,42.805,6.029,4330,1995,193.378,59.138,13.288
2019-06-29T07:51:47,42.805,6.029,4330,1995,193.349,59.129,13.288
2019-06-29T07:54:47,42.805,6.029,4330,1995,193.366,59.134,13.288
2019-06-29T07:57:47,42.805,6.029,4330,1995,193.359,59.132,13.288
2019-06-29T08:00:47,42.805,6.029,4330,1995,193.377,59.137,13.288
2019-06-29T08:03:47,42.805,6.029,4330,1995,193.391,59.142,13.288
2019-06-29T08:06:47,42.805,6.029,4330,1995,193.355,59.131,13.288
2019-06-29T08:09:47,42.805,6.029,4330,1995,193.453,59.161,13.288
2019-06-29T08:12:47,42.805,6.029,4330,1995,193.416,59.150,13.288
2019-06-29T08:15:47,42.805,6.029,4330,1995,193.466,59.165,13.288
2019-06-29T08:18:47,42.805,6.029,4330,1995,193.518,59.181,13.289
2019-06-29T08:21:47,42.805,6.029,4330,1995,193.368,59.136,13.289
2019-06-29T08:24:47,42.805,6.029,4330,1995,193.366,59.135,13.289
2019-06-29T08:27:47,42.805,6.029,4330,1995,193.282,59.110,13.289
2019-06-29T08:30:47,42.805,6.029,4330,1995,193.336,59.127,13.289
2019-06-29T08:33:47,42.805,6.029,4330,1995,193.441,59.158,13.289
2019-06-29T08:36:47,42.805,6.029,4330,1995,193.464,59.165,13.289
2019-06-29T08:39:47,42.805,6.029,4330,1995,193.600,59.206,13.289
2019-06-29T08:45:47,42.805,6.029,4330,1995,193.584,59.200,13.288
2019-06-29T08:48:47,42.805,6.029,4330,1995,193.617,59.210,13.288
2019-06-29T08:51:47,42.805,6.029,4330,1995,193.591,59.203,13.288
2019-06-29T08:54:47,42.805,6.029,4330,1995,193.662,59.225,13.288
2019-06-29T08:57:47,42.805,6.029,4330,1995,193.643,59.219,13.288
2019-06-29T09:00:47,42.805,6.029,4330,1995,193.605,59.207,13.288
2019-06-29T09:03:47,42.805,6.029,4330,1995,193.651,59.221,13.288
2019-06-29T09:06:47,42.805,6.029,4330,1995,193.736,59.247,13.288
2019-06-29T09:09:47,42.805,6.029,4330,1995,193.765,59.256,13.288
2019-06-29T09:12:47,42.805,6.029,4330,1995,193.692,59.234,13.288
2019-06-29T09:15:47,42.805,6.029,4330,1995,193.789,59.264,13.288
2019-06-29T09:18:47,42.805,6.029,4330,1995,193.775,59.260,13.289
2019-06-29T09:21:47,42.805,6.029,4330,1995,193.726,59.245,13.289
2019-06-29T09:24:47,42.805,6.029,4330,1995,193.632,59.217,13.289
2019-06-29T09:27:47,42.805,6.029,4330,1995,193.561,59.195,13.289
2019-06-29T09:30:47,42.805,6.029,4330,1995,193.427,59.154,13.289
2019-06-29T09:33:47,42.805,6.029,4330,1995,193.578,59.200,13.289
2019-06-29T09:36:47,42.805,6.029,4330,1995,193.635,59.217,13.289
2019-06-29T09:39:47,42.805,6.029,4330,1995,193.692,59.235,13.289
2019-06-29T09:42:47,42.805,6.029,4330,1995,193.791,59.265,13.288
2019-06-29T09:45:47,42.805,6.029,4330,1995,193.738,59.249,13.289
2019-06-29T09:48:47,42.805,6.029,4330,1995,193.833,59.278,13.289
2019-06-29T09:51:47,42.805,6.029,4330,1995,193.830,59.277,13.289
2019-06-29T09:54:47,42.805,6.029,4330,1995,193.846,59.282,13.289
2019-06-29T09:57:47,42.805,6.029,4330,1995,193.891,59.296,13.289
2019-06-29T10:00:47,42.805,6.029,4330,1995,193.792,59.266,13.289
2019-06-29T10:03:47,42.805,6.029,4330,1995,193.758,59.256,13.289
2019-06-29T10:06:47,42.805,6.029,4330,1995,193.780,59.262,13.289
2019-06-29T10:09:47,42.805,6.029,4330,1995,193.798,59.268,13.289
2019-06-29T10:12:47,42.805,6.029,4330,1995,193.719,59.244,13.290
2019-06-29T10:15:47,42.805,6.029,4330,1995,193.708,59.241,13.290
2019-06-29T10:18:47,42.805,6.029,4330,1995,193.786,59.264,13.289
2019-06-29T10:21:47,42.805,6.029,4330,1995,193.728,59.248,13.290
2019-06-29T10:24:47,42.805,6.029,4330,1995,193.782,59.264,13.290
2019-06-29T10:27:47,42.805,6.029,4330,1995,193.794,59.267,13.290
2019-06-29T10:30:47,42.805,6.029,4330,1995,193.799,59.269,13.290
2019-06-29T10:33:47,42.805,6.029,4330,1995,193.859,59.287,13.289
2019-06-29T10:36:47,42.805,6.029,4330,1995,193.799,59.268,13.289
2019-06-29T10:39:47,42.805,6.029,4330,1995,193.873,59.291,13.289
2019-06-29T10:42:47,42.805,6.029,4330,1995,193.866,59.289,13.289
2019-06-29T10:45:47,42.805,6.029,4330,1995,193.889,59.295,13.289
2019-06-29T10:48:47,42.805,6.029,4330,1995,193.962,59.318,13.289
2019-06-29T10:51:47,42.805,6.029,4330,1995,193.918,59.304,13.289
2019-06-29T10:54:47,42.805,6.029,4330,1995,193.908,59.302,13.290
2019-06-29T10:57:47,42.805,6.029,4330,1995,193.931,59.308,13.289
2019-06-29T11:00:47,42.805,6.029,4330,1995,193.930,59.307,13.289
2019-06-29T11:03:47,42.805,6.029,4330,1995,193.936,59.309,13.289
2019-06-29T11:06:47,42.805,6.029,4330,1995,193.993,59.326,13.288
2019-06-29T11:09:47,42.805,6.029,4330,1995,193.910,59.301,13.289
2019-06-29T11:12:47,42.805,6.029,4330,1995,193.989,59.325,13.288
2019-06-29T11:15:47,42.805,6.029,4330,1995,193.903,59.299,13.289
2019-06-29T11:21:47,42.805,6.029,4330,1995,193.949,59.311,13.287
2019-06-29T11:24:47,42.805,6.029,4330,1995,193.958,59.317,13.290
2019-06-29T11:27:47,42.805,6.029,4330,1995,193.913,59.304,13.290
2019-06-29T11:30:47,42.805,6.029,4330,1995,193.969,59.322,13.291
2019-06-29T11:33:47,42.805,6.029,4330,1995,193.926,59.308,13.290
2019-06-29T11:36:47,42.805,6.029,4330,1995,193.920,59.307,13.291
2019-06-29T11:39:47,42.805,6.029,4330,1995,193.938,59.313,13.291
2019-06-29T11:42:47,42.805,6.029,4330,1995,193.888,59.298,13.292
2019-06-29T11:45:47,42.805,6.029,4330,1995,193.866,59.290,13.290
2019-06-29T11:48:47,42.805,6.029,4330,1995,193.872,59.292,13.290
2019-06-29T11:51:47,42.805,6.029,4330,1995,193.880,59.294,13.290
2019-06-29T11:54:47,42.805,6.029,4330,1995,193.832,59.279,13.290
2019-06-29T11:57:47,42.805,6.029,4330,1995,193.800,59.269,13.290
2019-06-29T12:00:47,42.805,6.029,4330,1995,193.787,59.265,13.290
2019-06-29T12:03:47,42.805,6.029,4330,1995,193.805,59.272,13.291
2019-06-29T12:06:47,42.805,6.029,4330,1995,193.744,59.252,13.290
2019-06-29T12:09:47,42.805,6.029,4330,1995,193.723,59.245,13.290
2019-06-29T12:12:47,42.805,6.029,4330,1995,193.704,59.240,13.290
2019-06-29T12:15:47,42.805,6.029,4330,1995,193.688,59.236,13.290
2019-06-29T12:18:47,42.805,6.029,4330,1995,193.695,59.237,13.290
2019-06-29T12:21:47,42.805,6.029,4330,1995,193.669,59.228,13.289
2019-06-29T12:24:47,42.805,6.029,4330,1995,193.680,59.231,13.289
2019-06-29T12:27:47,42.805,6.029,4330,1995,193.590,59.204,13.289
2019-06-29T12:30:47,42.805,6.029,4330,1995,193.550,59.193,13.290
2019-06-29T12:33:47,42.805,6.029,4330,1995,193.510,59.180,13.290
2019-06-29T12:36:47,42.805,6.029,4330,1995,193.581,59.202,13.290
2019-06-29T12:39:47,42.805,6.029,4330,1995,193.559,59.195,13.289
2019-06-29T12:42:47,42.805,6.029,4330,1995,193.569,59.201,13.292
2019-06-29T12:45:47,42.805,6.029,4330,1995,193.673,59.231,13.290
2019-06-29T12:48:47,42.805,6.029,4330,1995,193.538,59.190,13.291
2019-06-29T12:51:47,42.805,6.029,4330,1995,193.518,59.184,13.291
2019-06-29T12:54:47,42.805,6.029,4330,1995,193.568,59.199,13.291
2019-06-29T12:57:47,42.805,6.029,4330,1995,193.541,59.193,13.292
2019-06-29T13:00:47,42.805,6.029,4330,1995,193.495,59.177,13.291
2019-06-29T13:03:47,42.805,6.029,4330,1995,193.467,59.171,13.293
2019-06-29T13:06:47,42.805,6.029,4330,1995,193.493,59.178,13.292
2019-06-29T13:09:47,42.805,6.029,4330,1995,193.481,59.173,13.291
2019-06-29T13:12:47,42.805,6.029,4330,1995,193.352,59.136,13.292
2019-06-29T13:15:47,42.805,6.029,4330,1995,193.364,59.140,13.293
2019-06-29T13:18:47,42.805,6.029,4330,1995,193.336,59.129,13.292
2019-06-29T13:21:47,42.805,6.029,4330,1995,193.341,59.132,13.292
2019-06-29T13:24:47,42.805,6.029,4330,1995,193.329,59.129,13.293
2019-06-29T13:27:47,42.805,6.029,4330,1995,193.205,59.091,13.293
2019-06-29T13:30:47,42.805,6.029,4330,1995,193.202,59.090,13.292
2019-06-29T13:33:47,42.805,6.029,4330,1995,193.199,59.088,13.292
2019-06-29T13:36:47,42.805,6.029,4330,1995,193.120,59.066,13.294
2019-06-29T13:39:47,42.805,6.029,4330,1995,193.150,59.073,13.292
2019-06-29T13:42:47,42.805,6.029,4330,1995,193.103,59.060,13.292
2019-06-29T13:45:47,42.805,6.029,4330,1995,193.149,59.073,13.292
2019-06-29T13:48:47,42.805,6.029,4330,1995,193.126,59.066,13.292
2019-06-29T13:57:47,42.805,6.029,4330,1995,193.147,59.068,13.288
2019-06-29T14:00:47,42.805,6.029,4330,1995,193.047,59.040,13.291
2019-06-29T14:03:47,42.805,6.029,4330,1995,192.970,59.017,13.291
2019-06-29T14:06:47,42.805,6.029,4330,1995,192.826,58.973,13.291
2019-06-29T14:09:47,42.805,6.029,4330,1995,192.845,58.979,13.292
2019-06-29T14:12:47,42.805,6.029,4330,1995,192.813,58.970,13.292
2019-06-29T14:15:47,42.805,6.029,4330,1995,192.768,58.955,13.291
2019-06-29T14:18:47,42.805,6.029,4330,1995,192.739,58.946,13.291
2019-06-29T14:21:47,42.805,6.029,4330,1995,192.784,58.960,13.291
2019-06-29T14:24:47,42.805,6.029,4330,1995,192.842,58.978,13.291
2019-06-29T14:27:47,42.805,6.029,4330,1995,192.965,59.016,13.291
2019-06-29T14:30:47,42.805,6.029,4330,1995,192.946,59.011,13.292
2019-06-29T14:33:47,42.805,6.029,4330,1995,192.870,58.987,13.292
2019-06-29T14:36:47,42.805,6.029,4330,1995,192.909,59.000,13.292
2019-06-29T14:39:47,42.805,6.029,4330,1995,192.948,59.011,13.292
2019-06-29T14:42:47,42.805,6.029,4330,1995,193.010,59.030,13.292
2019-06-29T14:45:47,42.805,6.029,4330,1995,193.044,59.040,13.291
2019-06-29T14:48:47,42.805,6.029,4330,1995,193.046,59.040,13.291
2019-06-29T14:51:47,42.805,6.029,4330,1995,193.033,59.036,13.291
2019-06-29T14:54:47,42.805,6.029,4330,1995,193.139,59.069,13.291
2019-06-29T14:57:47,42.805,6.029,4330,1995,193.126,59.065,13.291
2019-06-29T15:00:47,42.805,6.029,4330,1995,193.097,59.056,13.291
2019-06-29T15:03:47,42.805,6.029,4330,1995,193.186,59.083,13.291
2019-06-29T15:06:47,42.805,6.029,4330,1995,193.151,59.072,13.291
2019-06-29T15:09:47,42.805,6.029,4330,1995,193.112,59.060,13.290
2019-06-29T15:12:47,42.805,6.029,4330,1995,193.167,59.076,13.291
2019-06-29T15:15:47,42.805,6.029,4330,1995,193.214,59.091,13.291
2019-06-29T15:18:47,42.805,6.029,4330,1995,193.149,59.071,13.291
2019-06-29T15:21:47,42.805,6.029,4330,1995,193.105,59.057,13.290
2019-06-29T15:24:47,42.805,6.029,4330,1995,193.152,59.071,13.290
2019-06-29T15:27:47,42.805,6.029,4330,1995,193.102,59.056,13.290
2019-06-29T15:30:47,42.805,6.029,4330,1995,192.815,58.968,13.290
2019-06-29T15:33:47,42.805,6.029,4330,1995,192.944,59.007,13.290
2019-06-29T15:36:47,42.805,6.029,4330,1995,193.074,59.046,13.289
2019-06-29T15:39:47,42.805,6.029,4330,1995,193.102,59.055,13.289
2019-06-29T15:42:47,42.805,6.029,4330,1995,193.084,59.049,13.289
2019-06-29T15:45:47,42.805,6.029,4330,1995,193.066,59.044,13.289
2019-06-29T15:48:47,42.805,6.029,4330,1995,193.147,59.068,13.289
2019-06-29T15:51:47,42.805,6.029,4330,1995,193.168,59.075,13.289
2019-06-29T15:54:47,42.805,6.029,4330,1995,193.169,59.075,13.289
2019-06-29T15:57:47,42.805,6.029,4330,1995,193.239,59.097,13.289
2019-06-29T16:00:47,42.805,6.029,4330,1995,193.258,59.103,13.289
2019-06-29T16:03:47,42.805,6.029,4330,1995,193.184,59.080,13.289
2019-06-29T16:06:47,42.805,6.029,4330,1995,193.222,59.092,13.289
2019-06-29T16:09:47,42.805,6.029,4330,1995,193.191,59.083,13.290
2019-06-29T16:12:47,42.805,6.029,4330,1995,193.224,59.092,13.289
2019-06-29T16:15:47,42.805,6.029,4330,1995,193.262,59.104,13.289
2019-06-29T16:18:47,42.805,6.029,4330,1995,193.279,59.109,13.289
2019-06-29T16:21:47,42.805,6.029,4330,1995,193.341,59.129,13.290
2019-06-29T16:24:47,42.805,6.029,4330,1995,193.236,59.097,13.290
2019-06-29T16:30:47,42.805,6.029,4330,1995,193.290,59.111,13.288
2019-06-29T16:33:47,42.805,6.029,4330,1995,193.281,59.108,13.288
2019-06-29T16:36:47,42.805,6.029,4330,1995,193.230,59.094,13.289
2019-06-29T16:39:47,42.805,6.029,4330,1995,193.255,59.101,13.289
2019-06-29T16:42:47,42.805,6.029,4330,1995,193.269,59.105,13.289
2019-06-29T16:45:47,42.805,6.029,4330,1995,193.340,59.127,13.289
2019-06-29T16:48:47,42.805,6.029,4330,1995,193.301,59.115,13.289
2019-06-29T16:51:47,42.805,6.029,4330,1995,193.304,59.116,13.289
2019-06-29T16:54:47,42.805,6.029,4330,1995,193.183,59.079,13.289
2019-06-29T16:57:47,42.805,6.029,4330,1995,193.239,59.097,13.289
2019-06-29T17:00:47,42.805,6.029,4330,1995,193.212,59.088,13.289
2019-06-29T17:03:47,42.805,6.029,4330,1995,193.171,59.076,13.289
2019-06-29T17:06:47,42.805,6.029,4330,1995,193.162,59.073,13.290
2019-06-29T17:09:47,42.805,6.029,4330,1995,193.045,59.038,13.290
2019-06-29T17:12:47,42.805,6.029,4330,1995,193.098,59.054,13.290
2019-06-29T17:15:47,42.805,6.029,4330,1995,193.243,59.098,13.289
2019-06-29T17:18:47,42.805,6.029,4330,1995,193.271,59.107,13.289
2019-06-29T17:21:47,42.805,6.029,4330,1995,193.259,59.103,13.290
2019-06-29T17:24:47,42.805,6.029,4330,1995,193.249,59.100,13.289
2019-06-29T17:27:47,42.805,6.029,4330,1995,193.301,59.116,13.290
2019-06-29T17:30:47,42.805,6.029,4330,1995,193.256,59.103,13.290
2019-06-29T17:33:47,42.805,6.029,4330,1995,193.167,59.075,13.290
2019-06-29T17:36:47,42.805,6.029,4330,1995,193.224,59.093,13.290
2019-06-29T17:39:47,42.805,6.029,4330,1995,193.321,59.122,13.290
2019-06-29T17:42:47,42.805,6.029,4330,1995,193.324,59.123,13.289
2019-06-29T17:45:47,42.805,6.029,4330,1995,193.329,59.125,13.289
2019-06-29T17:48:47,42.805,6.029,4330,1995,193.328,59.125,13.290
2019-06-29T17:51:47,42.805,6.029,4330,1995,193.296,59.115,13.290
2019-06-29T17:54:47,42.805,6.029,4330,1995,193.349,59.131,13.290
2019-06-29T17:57:47,42.805,6.029,4330,1995,193.319,59.122,13.290
2019-06-29T18:00:47,42.805,6.029,4330,1995,193.347,59.130,13.290
2019-06-29T18:03:47,42.805,6.029,4330,1995,193.296,59.115,13.290
2019-06-29T18:06:47,42.805,6.029,4330,1995,193.282,59.111,13.290
2019-06-29T18:09:47,42.805,6.029,4330,1995,193.276,59.109,13.290
2019-06-29T18:12:47,42.805,6.029,4330,1995,193.276,59.109,13.290
2019-06-29T18:15:47,42.805,6.029,4330,1995,193.192,59.084,13.290
2019-06-29T18:18:47,42.805,6.029,4330,1995,193.211,59.089,13.290
2019-06-29T18:21:47,42.805,6.029,4330,1995,193.233,59.096,13.290
2019-06-29T18:24:47,42.805,6.029,4330,1995,193.314,59.120,13.290
2019-06-29T18:27:47,42.805,6.029,4330,1995,193.314,59.120,13.290
2019-06-29T18:30:47,42.805,6.029,4330,1995,193.281,59.110,13.289
2019-06-29T18:33:47,42.805,6.029,4330,1995,193.278,59.109,13.289